Location: Unspecified
(0.0000°N, 0.0000°E)
Time: 12:41:06
(UTC+00:00)

Vanguard 2 - Pass Details

Date: 10 December 2017
Orbit: 553 x 2939 km, 32.9° (Epoch: 24 April)

Event Time Altitude Azimuth Distance (km) Brightness Sun altitude
Rises 11:37:14 0° 230° (SW) 6,617 12.5 66.7°
Reaches altitude 10° 11:42:04 10° 227° (SW) 5,396 12.2 66.9°
Maximum altitude 11:57:07 67° 148° (SSE) 2,048 11.8 67.0°
Drops below altitude 10° 12:06:12 10° 66° (ENE) 3,415 10.8 66.8°
Sets 12:08:34 0° 63° (ENE) 4,130 11.1 66.7°
